Nome, AK

6:24 PM AKDT on April 23, 2017 (GMT -0800)
Nome

Weather History for PAOM - December, 2012

Change the Weather History Date:

Wednesday, December 26, 2012

  Actual Average Record
Temperature  
Mean Temperature 5 °F 8 °F  
Max Temperature 15 °F 15 °F 41 °F (1985)
Min Temperature -6 °F 0 °F -37 °F (1961)
Degree Days  
Heating Degree Days 60 57  
Month to date heating degree days 1724 1430  
Since 1 July heating degree days 5939 5523  
Cooling Degree Days 0 0  
Month to date cooling degree days 0 0  
Year to date cooling degree days 0 3  
Moisture  
Dew Point 4 °F    
Average Humidity 0    
Maximum Humidity 0    
Minimum Humidity 0    
Precipitation  
Precipitation T in 0.03 in 0.36 in (1973)
Month to date precipitation 0.48 0.90  
Year to date precipitation 18.61 16.63  
Snow  
Snow T in 0.40 in 4.00 in (1909)
Month to date snowfall 13.3 12.0  
Since 1 July snowfall 15.9 29.3  
Snow Depth 14.00 in    
Sea Level Pressure  
Sea Level Pressure 29.54 in    
Wind  
Wind Speed 5 mph (NNE)    
Max Wind Speed 14 mph    
Max Gust Speed 17 mph    
Visibility 10 miles    
Events Snow    
T = Trace of Precipitation, MM = Missing Value Source: NWS Daily Summary

Daily Weather History Graph

Daily Weather History Graph

Search for Another Location

Airport or City:

Trip Planner

Search our weather history database for the weather conditions in past years. The results will help you decide how hot, cold, wet, or windy it might be!

Date:

Astronomy

Dec. 26, 2012 Rise Set
Actual Time 12:03 PM AKST 4:02 PM AKST
Civil Twilight 10:41 AM AKST 5:23 PM AKST
Nautical Twilight 9:31 AM AKST 6:34 PM AKST
Astronomical Twilight 8:30 AM AKST 7:34 PM AKST
Moon 3:24 PM AKST (12/26) 10:18 AM AKST (12/26)
Length of Visible Light 6h 42m
Length of Day
3h 58m
Waxing Gibbous, 98% of the Moon is Illuminated
Dec 26
Waxing Gibbous
Dec 28
Full
Jan 4
Last Quarter
Jan 11
New
Jan 18
First Quarter

Hourly Weather History & Observations

Time (AKST) Temp. Windchill Dew Point Humidity Pressure Visibility Wind Dir Wind Speed Gust Speed Precip Events Conditions
12:53 AM 6.1 °F -0.9 °F 1.9 °F 83% 29.62 in 5.0 mi East 3.5 mph - 0.00 in Snow Light Snow
1:53 AM 6.1 °F -6.8 °F 1.9 °F 83% 29.61 in 10.0 mi ENE 8.1 mph - 0.00 in   Overcast
2:40 AM 10.4 °F -1.5 °F 5.0 °F 79% 29.60 in 8.0 mi ENE 8.1 mph - 0.00 in Snow Light Snow
3:53 AM 12.0 °F -2.0 °F 8.1 °F 84% 29.60 in 10.0 mi ENE 11.5 mph - 0.00 in   Overcast
4:53 AM 12.9 °F -1.6 °F 9.0 °F 84% 29.59 in 10.0 mi East 12.7 mph - N/A   Overcast
5:53 AM 12.9 °F -0.9 °F 9.0 °F 84% 29.59 in 10.0 mi East 11.5 mph - 0.00 in   Overcast
6:53 AM 12.9 °F 3.8 °F 9.0 °F 84% 29.59 in 10.0 mi East 5.8 mph - N/A   Overcast
7:30 AM 12.2 °F 2.9 °F 8.6 °F 85% 29.58 in 10.0 mi NE 5.8 mph - N/A   Overcast
7:51 AM 12.2 °F 2.9 °F 8.6 °F 85% 29.58 in 10.0 mi NE 5.8 mph - N/A   Overcast
7:53 AM 12.9 °F 5.2 °F 9.0 °F 84% 29.58 in 10.0 mi NE 4.6 mph - N/A   Overcast
8:53 AM 12.9 °F 5.2 °F 8.1 °F 81% 29.57 in 10.0 mi NE 4.6 mph - N/A   Overcast
9:53 AM 12.9 °F 3.8 °F 8.1 °F 81% 29.56 in 10.0 mi North 5.8 mph - N/A   Overcast
10:53 AM 14.0 °F 5.1 °F 8.1 °F 77% 29.55 in 10.0 mi North 5.8 mph - N/A   Overcast
11:53 AM 12.9 °F 6.9 °F 8.1 °F 81% 29.55 in 10.0 mi NNE 3.5 mph - N/A   Overcast
12:53 PM 15.1 °F - 8.1 °F 74% 29.54 in 8.0 mi Calm Calm - N/A   Overcast
1:53 PM 12.0 °F 2.7 °F 8.1 °F 84% 29.54 in 10.0 mi WNW 5.8 mph - N/A   Overcast
2:53 PM 10.9 °F 4.7 °F 6.1 °F 81% 29.52 in 10.0 mi NNW 3.5 mph - N/A   Mostly Cloudy
3:53 PM 1.9 °F -7.6 °F -2.0 °F 83% 29.52 in 10.0 mi NNW 4.6 mph - N/A   Partly Cloudy
4:53 PM 5.0 °F - -0.0 °F 80% 29.49 in 10.0 mi Calm Calm - N/A   Partly Cloudy
5:53 PM 1.0 °F -6.7 °F -2.0 °F 87% 29.48 in 10.0 mi West 3.5 mph - N/A   Partly Cloudy
6:53 PM -2.9 °F - -5.1 °F 90% 29.47 in 10.0 mi Calm Calm - N/A   Partly Cloudy
7:53 PM -2.9 °F - -6.0 °F 87% 29.46 in 10.0 mi Calm Calm - N/A   Partly Cloudy
8:53 PM -0.0 °F -7.9 °F -2.9 °F 88% 29.45 in 10.0 mi NNE 3.5 mph - N/A   Partly Cloudy
9:53 PM 5.0 °F -10.0 °F 1.0 °F 84% 29.44 in 10.0 mi NNW 10.4 mph - N/A   Partly Cloudy
10:53 PM 10.0 °F 0.4 °F 1.0 °F 67% 29.44 in 10.0 mi NNW 5.8 mph - N/A   Scattered Clouds
11:53 PM 10.9 °F 4.7 °F 1.9 °F 67% 29.42 in 10.0 mi Variable 3.5 mph - N/A   Scattered Clouds